Greenwood, SC

7:07 PM EDT on September 28, 2016 (GMT -0400)
Greenwood County

Weather History for KGRD - March, 2013

Change the Weather History Date:

Wednesday, March 13, 2013

  Actual Average (KAND) Record (KAND)
Temperature  
Mean Temperature 46 °F -  
Max Temperature 59 °F 64 °F 83 °F (1990)
Min Temperature 34 °F 43 °F 21 °F (1998)
Degree Days  
Heating Degree Days 20    
Moisture  
Dew Point 25 °F    
Average Humidity 45    
Maximum Humidity 85    
Minimum Humidity 21    
Precipitation  
Precipitation 0.00 in - - ()
Sea Level Pressure  
Sea Level Pressure 30.10 in    
Wind  
Wind Speed 7 mph (West)    
Max Wind Speed 15 mph    
Max Gust Speed 29 mph    
Visibility 10 miles    
Events      
Averages and records for this station are not official NWS values.
T = Trace of Precipitation, MM = Missing Value Source: NWS Daily Summary

Daily Weather History Graph

Daily Weather History Graph

Search for Another Location

Airport or City:

Trip Planner

Search our weather history database for the weather conditions in past years. The results will help you decide how hot, cold, wet, or windy it might be!

Date:

Astronomy

Mar. 13, 2013 Rise Set
Actual Time 7:41 AM EDT 7:34 PM EDT
Civil Twilight 7:16 AM EDT 7:59 PM EDT
Nautical Twilight 6:47 AM EDT 8:29 PM EDT
Astronomical Twilight 6:18 AM EDT 8:58 PM EDT
Moon 8:27 AM EDT (3/13) 9:42 PM EDT (3/13)
Length of Visible Light 12h 43m
Length of Day
11h 53m
Waxing Crescent, 4% of the Moon is Illuminated
Mar 13
Waxing Crescent
Mar 19
First Quarter
Mar 27
Full
Apr 3
Last Quarter
Apr 10
New

Hourly Weather History & Observations

Time (EDT) Temp. Windchill Dew Point Humidity Pressure Visibility Wind Dir Wind Speed Gust Speed Precip Events Conditions
12:56 AM 46.9 °F - 32.0 °F 56% 30.04 in 10.0 mi West 3.5 mph - N/A   Clear
1:56 AM 45.0 °F 42.6 °F 32.0 °F 60% 30.05 in 10.0 mi West 4.6 mph - N/A   Clear
2:56 AM 46.0 °F 42.5 °F 30.9 °F 56% 30.05 in 10.0 mi West 6.9 mph - N/A   Clear
3:56 AM 45.0 °F 42.6 °F 30.9 °F 58% 30.06 in 10.0 mi West 4.6 mph - N/A   Clear
4:56 AM 44.1 °F 41.5 °F 30.9 °F 60% 30.07 in 10.0 mi West 4.6 mph - N/A   Clear
5:56 AM 42.1 °F - 30.9 °F 65% 30.09 in 10.0 mi Calm Calm - N/A   Clear
6:56 AM 34.0 °F - 30.0 °F 85% 30.11 in 10.0 mi Calm Calm - N/A   Clear
7:56 AM 36.0 °F 31.1 °F 30.0 °F 79% 30.12 in 10.0 mi WSW 5.8 mph - N/A   Clear
8:56 AM 44.1 °F 40.8 °F 32.0 °F 63% 30.14 in 10.0 mi WSW 5.8 mph - N/A   Clear
9:56 AM 48.9 °F - 32.0 °F 52% 30.14 in 10.0 mi WSW 9.2 mph - N/A   Clear
10:56 AM 53.1 °F - 27.0 °F 37% 30.14 in 10.0 mi West 11.5 mph - N/A   Clear
11:56 AM 55.0 °F - 24.1 °F 30% 30.13 in 10.0 mi West 11.5 mph 27.6 mph N/A   Clear
12:56 PM 55.0 °F - 21.9 °F 28% 30.11 in 10.0 mi West 13.8 mph 27.6 mph N/A   Clear
1:56 PM 57.9 °F - 21.9 °F 25% 30.08 in 10.0 mi West 13.8 mph 25.3 mph N/A   Clear
2:56 PM 57.9 °F - 19.9 °F 23% 30.05 in 10.0 mi West 10.4 mph 28.8 mph N/A   Partly Cloudy
4:56 PM 57.9 °F - 18.0 °F 21% 30.05 in 10.0 mi West 13.8 mph 25.3 mph N/A   Clear
5:56 PM 55.9 °F - 18.0 °F 23% 30.06 in 10.0 mi NW 11.5 mph 24.2 mph N/A   Clear
6:56 PM 53.1 °F - 16.0 °F 23% 30.08 in 10.0 mi NW 15.0 mph 21.9 mph N/A   Clear
7:56 PM 50.0 °F - 19.0 °F 29% 30.12 in 10.0 mi NW 12.7 mph 19.6 mph N/A   Clear
8:56 PM 46.9 °F - 19.0 °F 33% 30.14 in 10.0 mi WNW 12.7 mph 19.6 mph N/A   Clear
9:56 PM 44.1 °F 40.8 °F 19.0 °F 37% 30.17 in 10.0 mi Variable 5.8 mph - N/A   Clear
10:56 PM 42.1 °F 39.2 °F 19.0 °F 40% 30.18 in 10.0 mi NW 4.6 mph - N/A   Clear
11:56 PM 39.9 °F - 19.0 °F 43% 30.20 in 10.0 mi Calm Calm - N/A   Clear